| time (UTC) | temp F | wind direction | speed knots | gust knots | rain 1hr in | rain 24hr in | rain mn in | humidity % | barometer mb |
| 20260507074141 | 55 | 13 | 0.9 | 4.3 | 0.00 | 0.00 | 0.00 | 84 | 1015.9 |
| 20260507073825 | 55 | 340 | 0.9 | 3.5 | 0.00 | 0.00 | 0.00 | 83 | 1015.9 |
| 20260507073326 | 55 | 15 | 0.9 | 3.5 | 0.00 | 0.00 | 0.00 | 83 | 1015.9 |
| 20260507072536 | 55 | 348 | 1.7 | 5.2 | 0.00 | 0.00 | 0.00 | 83 | 1015.8 |
| 20260507072007 | 55 | 349 | 1.7 | 5.2 | 0.00 | 0.00 | 0.00 | 83 | 1016.0 |
| 20260507071734 | 55 | 9 | 0.9 | 4.3 | 0.00 | 0.00 | 0.00 | 83 | 1015.9 |
| 20260507071000 | 55 | 325 | 0.0 | 3.5 | 0.00 | 0.00 | 0.00 | 83 | 1016.0 |
| 20260507070457 | 55 | 6 | 0.0 | 2.6 | 0.00 | 0.00 | 0.00 | 83 | 1016.0 |
| 20260507065949 | 55 | 330 | 0.0 | 2.6 | 0.00 | 0.00 | 0.00 | 83 | 1016.1 |
| 20260507065713 | 55 | 31 | 0.0 | 3.5 | 0.00 | 0.00 | 0.00 | 83 | 1016.0 |
| 20260507064945 | 55 | 19 | 0.0 | 2.6 | 0.00 | 0.00 | 0.00 | 82 | 1016.0 |
| 20260507064439 | 55 | 355 | 0.0 | 1.7 | 0.00 | 0.00 | 0.00 | 82 | 1015.9 |
| 20260507063937 | 55 | 19 | 0.0 | 1.7 | 0.00 | 0.00 | 0.00 | 82 | 1015.8 |
| 20260507063408 | 55 | 356 | 0.0 | 1.7 | 0.00 | 0.00 | 0.00 | 81 | 1015.9 |
| 20260507062904 | 55 | 359 | 0.9 | 1.7 | 0.00 | 0.00 | 0.00 | 81 | 1015.8 |
| 20260507062339 | 56 | 6 | 0.9 | 2.6 | 0.00 | 0.00 | 0.00 | 81 | 1015.8 |
| 20260507061815 | 56 | 27 | 0.0 | 2.6 | 0.00 | 0.00 | 0.00 | 80 | 1015.7 |
| 20260507061246 | 56 | 83 | 0.0 | 3.5 | 0.00 | 0.00 | 0.00 | 80 | 1015.8 |
| 20260507060743 | 56 | 68 | 0.0 | 3.5 | 0.00 | 0.00 | 0.00 | 80 | 1015.7 |
| 20260507060510 | 56 | 9 | 0.0 | 4.3 | 0.00 | 0.00 | 0.00 | 79 | 1015.6 |
| 20260507055936 | 56 | 338 | 0.0 | 4.3 | 0.00 | 0.00 | 0.00 | 79 | 1015.7 |
| 20260507055210 | 56 | 82 | 0.0 | 3.5 | 0.00 | 0.00 | 0.00 | 79 | 1015.7 |
| 20260507054708 | 56 | 41 | 0.0 | 4.3 | 0.00 | 0.00 | 0.00 | 78 | 1015.7 |
| 20260507054206 | 56 | 59 | 0.0 | 4.3 | 0.00 | 0.00 | 0.00 | 78 | 1015.7 |
| 20260507053638 | 57 | 359 | 0.9 | 5.2 | 0.00 | 0.00 | 0.00 | 77 | 1015.7 |
| 20260507053111 | 57 | 63 | 0.9 | 5.2 | 0.00 | 0.00 | 0.00 | 77 | 1015.7 |
| 20260507052607 | 57 | 340 | 0.9 | 3.5 | 0.00 | 0.00 | 0.00 | 77 | 1015.8 |
| 20260507052103 | 57 | 89 | 0.9 | 3.5 | 0.00 | 0.00 | 0.00 | 77 | 1015.9 |
| 20260507051554 | 57 | 82 | 0.9 | 3.5 | 0.00 | 0.00 | 0.00 | 77 | 1015.9 |
| 20260507051053 | 57 | 46 | 0.9 | 2.6 | 0.00 | 0.00 | 0.00 | 77 | 1015.9 |
| 20260507050524 | 57 | 304 | 0.9 | 6.1 | 0.00 | 0.00 | 0.00 | 77 | 1015.9 |
| 20260507050022 | 58 | 14 | 0.9 | 6.1 | 0.00 | 0.00 | 0.00 | 77 | 1015.8 |
| 20260507045502 | 58 | 339 | 0.9 | 5.2 | 0.00 | 0.00 | 0.00 | 78 | 1015.8 |
| 20260507045002 | 58 | 60 | 0.9 | 6.1 | 0.00 | 0.00 | 0.00 | 77 | 1015.8 |
| 20260507044443 | 58 | 60 | 0.9 | 6.1 | 0.00 | 0.00 | 0.00 | 77 | 1015.8 |
| 20260507043941 | 58 | 336 | 0.9 | 6.1 | 0.00 | 0.00 | 0.00 | 77 | 1016.0 |
| 20260507043417 | 58 | 316 | 0.9 | 3.5 | 0.00 | 0.00 | 0.00 | 77 | 1015.9 |
| 20260507042850 | 58 | 264 | 0.9 | 2.6 | 0.00 | 0.00 | 0.00 | 77 | 1016.0 |
| 20260507042345 | 58 | 333 | 0.0 | 2.6 | 0.00 | 0.00 | 0.00 | 76 | 1016.2 |
| 20260507041843 | 58 | 16 | 0.0 | 2.6 | 0.00 | 0.00 | 0.00 | 76 | 1016.2 |
| 20260507041342 | 59 | 6 | 0.0 | 2.6 | 0.00 | 0.00 | 0.00 | 76 | 1016.3 |
| 20260507040814 | 59 | 351 | 0.9 | 4.3 | 0.00 | 0.00 | 0.00 | 76 | 1016.4 |
| 20260507040256 | 59 | 29 | 0.9 | 4.3 | 0.00 | 0.00 | 0.00 | 75 | 1016.3 |
| 20260507035734 | 59 | 329 | 1.7 | 5.2 | 0.00 | 0.00 | 0.00 | 75 | 1016.3 |
| 20260507035215 | 59 | 43 | 1.7 | 7.0 | 0.00 | 0.00 | 0.00 | 75 | 1016.3 |
| 20260507034718 | 59 | 6 | 1.7 | 7.0 | 0.00 | 0.00 | 0.00 | 75 | 1016.2 |
| 20260507034200 | 59 | 41 | 2.6 | 7.8 | 0.00 | 0.00 | 0.00 | 75 | 1016.3 |
| 20260507033643 | 59 | 36 | 2.6 | 7.8 | 0.00 | 0.00 | 0.00 | 75 | 1016.3 |
| 20260507033126 | 59 | 358 | 2.6 | 7.0 | 0.00 | 0.00 | 0.00 | 75 | 1016.1 |
| 20260507032628 | 59 | 359 | 2.6 | 6.1 | 0.00 | 0.00 | 0.00 | 75 | 1016.0 |
| 20260507032110 | 59 | 44 | 2.6 | 7.0 | 0.00 | 0.00 | 0.00 | 75 | 1015.9 |
| 20260507031553 | 59 | 12 | 1.7 | 6.1 | 0.00 | 0.00 | 0.00 | 75 | 1015.9 |
| 20260507031239 | 59 | 5 | 1.7 | 4.3 | 0.00 | 0.00 | 0.00 | 75 | 1015.9 |
| 20260507030505 | 59 | 0 | 1.7 | 5.2 | 0.00 | 0.00 | 0.00 | 75 | 1015.8 |
| 20260507030158 | 59 | 8 | 2.6 | 7.8 | 0.00 | 0.00 | 0.00 | 75 | 1015.6 |
| 20260507025433 | 59 | 324 | 2.6 | 7.8 | 0.00 | 0.00 | 0.00 | 75 | 1015.5 |
| 20260507025213 | 59 | 61 | 1.7 | 6.1 | 0.00 | 0.00 | 0.00 | 76 | 1015.4 |
| 20260507025118 | 59 | 10 | 1.7 | 5.2 | 0.00 | 0.00 | 0.00 | 76 | 1015.4 |
| 20260507023910 | 59 | 335 | 0.9 | 5.2 | 0.00 | 0.00 | 0.00 | 77 | 1015.3 |
| 20260507023344 | 59 | 345 | 0.9 | 4.3 | 0.00 | 0.00 | 0.00 | 77 | 1015.2 |
| 20260507022820 | 59 | 103 | 0.9 | 4.3 | 0.00 | 0.00 | 0.00 | 77 | 1015.2 |
| 20260507022255 | 59 | 80 | 0.9 | 4.3 | 0.00 | 0.00 | 0.00 | 77 | 1014.9 |
| 20260507021734 | 59 | 70 | 1.7 | 6.1 | 0.00 | 0.00 | 0.00 | 77 | 1014.9 |
| 20260507021450 | 59 | 68 | 1.7 | 6.1 | 0.00 | 0.00 | 0.00 | 77 | 1014.8 |
| 20260507020729 | 59 | 27 | 1.7 | 7.8 | 0.00 | 0.00 | 0.00 | 78 | 1014.8 |
| 20260507020203 | 59 | 68 | 2.6 | 7.8 | 0.00 | 0.00 | 0.00 | 78 | 1014.7 |
| 20260507015858 | 59 | 26 | 2.6 | 11.3 | 0.00 | 0.00 | 0.00 | 78 | 1014.6 |
| 20260507015111 | 59 | 323 | 1.7 | 7.0 | 0.00 | 0.00 | 0.00 | 78 | 1014.5 |
| 20260507014607 | 59 | 76 | 2.6 | 9.6 | 0.00 | 0.00 | 0.00 | 77 | 1014.4 |
| 20260507014103 | 59 | 335 | 3.5 | 9.6 | 0.00 | 0.00 | 0.00 | 77 | 1014.2 |
| 20260507013822 | 59 | 34 | 3.5 | 8.7 | 0.00 | 0.00 | 0.00 | 77 | 1014.1 |
| 20260507013052 | 59 | 24 | 2.6 | 8.7 | 0.00 | 0.00 | 0.00 | 77 | 1014.0 |
| 20260507012548 | 59 | 323 | 2.6 | 8.7 | 0.00 | 0.00 | 0.00 | 78 | 1014.0 |
| 20260507012050 | 59 | 15 | 1.7 | 8.7 | 0.00 | 0.00 | 0.00 | 78 | 1013.8 |
| 20260507011523 | 59 | 19 | 2.6 | 7.0 | 0.00 | 0.00 | 0.00 | 78 | 1013.7 |
| 20260507011239 | 59 | 1 | 1.7 | 7.0 | 0.00 | 0.00 | 0.00 | 78 | 1013.6 |
| 20260507010516 | 59 | 1 | 1.7 | 7.0 | 0.00 | 0.00 | 0.00 | 78 | 1013.5 |
| 20260507010208 | 59 | 25 | 2.6 | 7.8 | 0.00 | 0.00 | 0.00 | 78 | 1013.6 |
| 20260507005706 | 59 | 337 | 2.6 | 7.8 | 0.00 | 0.00 | 0.00 | 79 | 1013.6 |
| 20260507004941 | 59 | 354 | 1.7 | 6.1 | 0.00 | 0.00 | 0.00 | 79 | 1013.6 |
| 20260507004703 | 59 | 6 | 0.9 | 3.5 | 0.00 | 0.00 | 0.00 | 80 | 1013.6 |
| 20260507003914 | 59 | 286 | 0.0 | 2.6 | 0.00 | 0.00 | 0.00 | 80 | 1013.4 |
| 20260507003345 | 59 | 295 | 0.9 | 3.5 | 0.00 | 0.00 | 0.00 | 80 | 1013.4 |
| 20260507002844 | 59 | 38 | 0.9 | 3.5 | 0.00 | 0.00 | 0.00 | 80 | 1013.3 |
| 20260507002317 | 59 | 338 | 0.9 | 3.5 | 0.00 | 0.00 | 0.00 | 79 | 1013.3 |
| 20260507001813 | 59 | 67 | 0.9 | 3.5 | 0.00 | 0.00 | 0.00 | 79 | 1013.3 |
| 20260507001309 | 59 | 63 | 1.7 | 7.0 | 0.00 | 0.00 | 0.00 | 79 | 1013.2 |
| 20260507000807 | 59 | 11 | 2.6 | 7.8 | 0.00 | 0.00 | 0.00 | 78 | 1013.0 |
| 20260507000306 | 59 | 296 | 2.6 | 7.8 | 0.00 | 0.00 | 0.00 | 78 | 1013.0 |
| 20260506235741 | 59 | 342 | 2.6 | 7.8 | 0.00 | 0.00 | 0.00 | 78 | 1012.9 |
| 20260506235215 | 59 | 322 | 1.7 | 5.2 | 0.00 | 0.00 | 0.00 | 78 | 1013.1 |
| 20260506234650 | 59 | 79 | 0.9 | 6.1 | 0.00 | 0.00 | 0.00 | 78 | 1013.1 |
| 20260506234416 | 59 | 1 | 0.9 | 6.1 | 0.00 | 0.00 | 0.00 | 77 | 1013.1 |
| 20260506233647 | 59 | 359 | 2.6 | 9.6 | 0.00 | 0.00 | 0.00 | 77 | 1013.1 |
| 20260506233150 | 59 | 352 | 2.6 | 9.6 | 0.00 | 0.00 | 0.00 | 76 | 1013.0 |
| 20260506232646 | 59 | 39 | 1.7 | 7.8 | 0.00 | 0.00 | 0.00 | 77 | 1012.9 |
| 20260506232149 | 59 | 357 | 2.6 | 7.0 | 0.00 | 0.00 | 0.00 | 77 | 1012.8 |
| 20260506231619 | 59 | 302 | 2.6 | 7.8 | 0.00 | 0.00 | 0.00 | 76 | 1012.7 |
| 20260506231118 | 59 | 344 | 2.6 | 6.1 | 0.00 | 0.00 | 0.00 | 77 | 1012.7 |
| 20260506230614 | 59 | 24 | 2.6 | 7.0 | 0.00 | 0.00 | 0.00 | 77 | 1012.8 |
| 20260506230337 | 59 | 341 | 2.6 | 5.2 | 0.00 | 0.00 | 0.00 | 78 | 1012.4 |
| 20260506225607 | 59 | 79 | 2.6 | 7.0 | 0.00 | 0.00 | 0.00 | 78 | 1012.4 |
| 20260506225107 | 59 | 335 | 1.7 | 5.2 | 0.00 | 0.00 | 0.00 | 78 | 1012.5 |
| 20260506224537 | 59 | 4 | 1.7 | 5.2 | 0.00 | 0.00 | 0.00 | 78 | 1012.7 |
| 20260506224036 | 59 | 36 | 2.6 | 7.0 | 0.00 | 0.00 | 0.00 | 78 | 1012.8 |
| 20260506223512 | 58 | 327 | 3.5 | 7.8 | 0.00 | 0.00 | 0.00 | 78 | 1012.7 |
| 20260506222941 | 58 | 8 | 3.5 | 7.8 | 0.00 | 0.00 | 0.00 | 78 | 1012.7 |
| 20260506222439 | 58 | 58 | 3.5 | 8.7 | 0.00 | 0.00 | 0.00 | 78 | 1012.7 |
| 20260506221915 | 58 | 30 | 3.5 | 8.7 | 0.00 | 0.00 | 0.00 | 78 | 1012.6 |
| 20260506221352 | 58 | 307 | 3.5 | 8.7 | 0.00 | 0.00 | 0.00 | 79 | 1012.4 |
| 20260506221112 | 58 | 27 | 3.5 | 9.6 | 0.00 | 0.00 | 0.00 | 79 | 1012.0 |
| 20260506220349 | 58 | 13 | 3.5 | 9.6 | 0.00 | 0.00 | 0.00 | 79 | 1012.0 |
| 20260506215849 | 58 | 314 | 2.6 | 7.0 | 0.00 | 0.00 | 0.00 | 79 | 1012.2 |
| 20260506215351 | 59 | 46 | 1.7 | 6.1 | 0.00 | 0.00 | 0.00 | 79 | 1012.2 |
| 20260506214826 | 59 | 36 | 1.7 | 6.1 | 0.00 | 0.00 | 0.00 | 77 | 1012.3 |
| 20260506214257 | 59 | 328 | 1.7 | 7.0 | 0.00 | 0.00 | 0.00 | 77 | 1012.1 |
| 20260506214023 | 60 | 22 | 2.6 | 7.0 | 0.00 | 0.00 | 0.00 | 75 | 1012.5 |
| 20260506213517 | 60 | 300 | 2.6 | 7.8 | 0.00 | 0.00 | 0.00 | 73 | 1012.3 |
| 20260506212751 | 60 | 4 | 1.7 | 7.8 | 0.00 | 0.00 | 0.00 | 73 | 1012.2 |
| 20260506212222 | 60 | 351 | 1.7 | 5.2 | 0.00 | 0.00 | 0.00 | 73 | 1012.2 |
| 20260506211718 | 60 | 7 | 1.7 | 5.2 | 0.00 | 0.00 | 0.00 | 73 | 1012.3 |
| 20260506211151 | 60 | 38 | 1.7 | 5.2 | 0.00 | 0.00 | 0.00 | 74 | 1012.4 |
| 20260506210645 | 60 | 55 | 2.6 | 5.2 | 0.00 | 0.00 | 0.00 | 74 | 1012.2 |
| 20260506210406 | 60 | 316 | 2.6 | 7.8 | 0.00 | 0.00 | 0.00 | 73 | 1012.5 |
| 20260506205635 | 60 | 330 | 2.6 | 7.8 | 0.00 | 0.00 | 0.00 | 73 | 1012.5 |
| 20260506205133 | 60 | 341 | 2.6 | 7.8 | 0.00 | 0.00 | 0.00 | 74 | 1012.4 |
| 20260506204832 | 60 | 11 | 3.5 | 7.8 | 0.00 | 0.00 | 0.00 | 74 | 1012.6 |
| 20260506204039 | 60 | 353 | 3.5 | 7.0 | 0.00 | 0.00 | 0.00 | 73 | 1012.6 |
| 20260506203538 | 60 | 65 | 2.6 | 7.0 | 0.00 | 0.00 | 0.00 | 73 | 1012.7 |
| 20260506203013 | 60 | 23 | 1.7 | 7.0 | 0.00 | 0.00 | 0.00 | 75 | 1012.6 |
| 20260506202702 | 60 | 23 | 2.6 | 7.8 | 0.00 | 0.00 | 0.00 | 76 | 1012.7 |
| 20260506201942 | 59 | 29 | 2.6 | 7.8 | 0.00 | 0.00 | 0.00 | 76 | 1012.9 |
| 20260506201639 | 59 | 35 | 1.7 | 6.1 | 0.00 | 0.00 | 0.00 | 76 | 1013.1 |
| 20260506201111 | 59 | 309 | 1.7 | 5.2 | 0.00 | 0.00 | 0.00 | 75 | 1013.1 |
| 20260506200344 | 59 | 13 | 1.7 | 6.1 | 0.00 | 0.00 | 0.00 | 75 | 1013.4 |
| 20260506195841 | 59 | 44 | 2.6 | 6.1 | 0.00 | 0.00 | 0.00 | 74 | 1013.2 |
| 20260506195337 | 60 | 51 | 2.6 | 6.1 | 0.00 | 0.00 | 0.00 | 76 | 1012.8 |
| 20260506194831 | 59 | 31 | 1.7 | 6.1 | 0.00 | 0.00 | 0.00 | 79 | 1012.6 |
| 20260506194329 | 58 | 315 | 1.7 | 4.3 | 0.00 | 0.00 | 0.00 | 80 | 1012.7 |
| 20260506194247 | 58 | 18 | 1.7 | 4.3 | 0.00 | 0.00 | 0.00 | 79 | 1013.0 |
| 20260506193259 | 57 | 352 | 1.7 | 4.3 | 0.00 | 0.00 | 0.00 | 79 | 1013.0 |
| 20260506192758 | 57 | 14 | 0.9 | 5.2 | 0.00 | 0.00 | 0.00 | 79 | 1013.3 |
| 20260506192253 | 57 | 40 | 0.9 | 5.2 | 0.00 | 0.00 | 0.00 | 80 | 1013.5 |
| 20260506191752 | 57 | 315 | 1.7 | 6.1 | 0.00 | 0.00 | 0.00 | 80 | 1013.5 |
| 20260506191225 | 57 | 334 | 1.7 | 6.1 | 0.00 | 0.00 | 0.00 | 79 | 1013.4 |
| 20260506190726 | 57 | 15 | 1.7 | 5.2 | 0.00 | 0.00 | 0.00 | 80 | 1013.3 |
| 20260506190418 | 57 | 345 | 1.7 | 5.2 | 0.00 | 0.00 | 0.00 | 80 | 1013.2 |
| 20260506185653 | 57 | 30 | 1.7 | 5.2 | 0.00 | 0.00 | 0.00 | 80 | 1013.2 |
| 20260506185123 | 56 | 6 | 1.7 | 4.3 | 0.00 | 0.00 | 0.00 | 80 | 1013.4 |
| 20260506184619 | 56 | 23 | 0.9 | 6.1 | 0.00 | 0.00 | 0.00 | 80 | 1013.2 |
| 20260506184120 | 56 | 10 | 1.7 | 6.1 | 0.00 | 0.00 | 0.00 | 80 | 1013.1 |
| 20260506183551 | 56 | 347 | 1.7 | 6.1 | 0.00 | 0.00 | 0.00 | 80 | 1012.8 |
| 20260506183049 | 56 | 12 | 2.6 | 8.7 | 0.00 | 0.00 | 0.00 | 80 | 1012.6 |
| 20260506182523 | 56 | 41 | 3.5 | 8.7 | 0.00 | 0.00 | 0.00 | 82 | 1012.2 |
| 20260506182022 | 56 | 25 | 4.3 | 10.4 | 0.00 | 0.00 | 0.00 | 82 | 1012.0 |
| 20260506181453 | 56 | 39 | 3.5 | 10.4 | 0.00 | 0.00 | 0.00 | 82 | 1011.7 |
| 20260506180952 | 56 | 322 | 4.3 | 8.7 | 0.00 | 0.00 | 0.00 | 82 | 1011.6 |
| 20260506180912 | 55 | 7 | 5.2 | 11.3 | 0.00 | 0.00 | 0.00 | 82 | 1011.6 |
| 20260506175857 | 55 | 328 | 5.2 | 11.3 | 0.00 | 0.00 | 0.00 | 82 | 1011.5 |
| 20260506175354 | 55 | 356 | 4.3 | 11.3 | 0.00 | 0.00 | 0.00 | 83 | 1012.0 |
| 20260506174830 | 55 | 337 | 3.5 | 10.4 | 0.00 | 0.00 | 0.00 | 83 | 1012.3 |
| 20260506174305 | 55 | 11 | 3.5 | 7.8 | 0.00 | 0.00 | 0.00 | 85 | 1012.4 |
| 20260506174004 | 55 | 356 | 1.7 | 7.8 | 0.00 | 0.00 | 0.00 | 87 | 1012.5 |
| 20260506173220 | 55 | 329 | 0.9 | 5.2 | 0.00 | 0.00 | 0.00 | 88 | 1012.9 |
| 20260506172703 | 54 | 345 | 1.7 | 7.8 | 0.00 | 0.00 | 0.00 | 88 | 1013.2 |
| 20260506172425 | 53 | 87 | 3.5 | 8.7 | 0.00 | 0.00 | 0.00 | 88 | 1013.1 |
| 20260506171701 | 53 | 63 | 2.6 | 8.7 | 0.00 | 0.00 | 0.00 | 89 | 1013.2 |
| 20260506171205 | 53 | 326 | 2.6 | 7.0 | 0.00 | 0.00 | 0.00 | 89 | 1013.3 |
| 20260506170638 | 53 | 6 | 3.5 | 12.2 | 0.00 | 0.00 | 0.00 | 89 | 1013.3 |
| 20260506170112 | 53 | 35 | 4.3 | 12.2 | 0.00 | 0.00 | 0.00 | 89 | 1012.6 |
| 20260506165609 | 53 | 342 | 3.5 | 8.7 | 0.00 | 0.00 | 0.00 | 89 | 1012.7 |
| 20260506165107 | 53 | 14 | 3.5 | 7.8 | 0.00 | 0.00 | 0.00 | 89 | 1013.0 |
| 20260506164814 | 53 | 41 | 2.6 | 7.0 | 0.00 | 0.00 | 0.00 | 89 | 1013.0 |
| 20260506164052 | 54 | 33 | 1.7 | 7.0 | 0.00 | 0.00 | 0.00 | 89 | 1013.1 |
| 20260506163529 | 54 | 5 | 1.7 | 7.0 | 0.00 | 0.00 | 0.00 | 88 | 1013.2 |
| 20260506162959 | 54 | 28 | 1.7 | 4.3 | 0.00 | 0.00 | 0.00 | 89 | 1013.3 |
| 20260506162720 | 54 | 333 | 0.9 | 4.3 | 0.00 | 0.00 | 0.00 | 89 | 1013.3 |
| 20260506161958 | 55 | 68 | 0.0 | 1.7 | 0.00 | 0.00 | 0.00 | 89 | 1013.4 |
| 20260506161451 | 54 | 66 | 0.0 | 3.5 | 0.00 | 0.00 | 0.00 | 89 | 1013.3 |
| 20260506160953 | 54 | 68 | 0.0 | 3.5 | 0.00 | 0.00 | 0.00 | 89 | 1013.3 |
| 20260506160437 | 54 | 108 | 0.0 | 2.6 | 0.00 | 0.00 | 0.00 | 89 | 1013.5 |
| 20260506160202 | 53 | 357 | 0.9 | 12.2 | 0.00 | 0.00 | 0.00 | 89 | 1013.4 |
| 20260506155417 | 53 | 11 | 0.9 | 12.2 | 0.00 | 0.00 | 0.00 | 88 | 1012.9 |
| 20260506154851 | 52 | 14 | 3.5 | 13.0 | 0.00 | 0.00 | 0.00 | 86 | 1013.5 |
| 20260506154352 | 52 | 335 | 4.3 | 13.0 | 0.00 | 0.00 | 0.00 | 85 | 1012.0 |
| 20260506153826 | 53 | 325 | 1.7 | 7.8 | 0.00 | 0.00 | 0.00 | 83 | 1013.9 |
| 20260506153528 | 54 | 349 | 0.9 | 16.5 | 0.00 | 0.00 | 0.00 | 80 | 1014.6 |
| 20260506152740 | 54 | 267 | 0.9 | 16.5 | 0.00 | 0.00 | 0.00 | 79 | 1015.0 |
| 20260506152242 | 54 | 94 | 1.7 | 5.2 | 0.00 | 0.00 | 0.00 | 78 | 1014.7 |
| 20260506151715 | 54 | 351 | 2.6 | 8.7 | 0.00 | 0.00 | 0.00 | 79 | 1014.1 |
| 20260506151157 | 54 | 52 | 2.6 | 8.7 | 0.00 | 0.00 | 0.00 | 79 | 1013.8 |
| 20260506150630 | 54 | 33 | 2.6 | 7.8 | 0.00 | 0.00 | 0.00 | 79 | 1013.4 |
| 20260506150058 | 54 | 6 | 3.5 | 8.7 | 0.00 | 0.00 | 0.00 | 78 | 1013.3 |
| 20260506145057 | 54 | 309 | 3.5 | 9.6 | 0.00 | 0.00 | 0.00 | 77 | 1012.8 |
| 20260506144556 | 54 | 18 | 2.6 | 7.8 | 0.00 | 0.00 | 0.00 | 76 | 1013.0 |
| 20260506144034 | 54 | 326 | 2.6 | 7.8 | 0.00 | 0.00 | 0.00 | 77 | 1013.6 |
| 20260506143531 | 54 | 15 | 2.6 | 7.8 | 0.00 | 0.00 | 0.00 | 77 | 1013.5 |
| 20260506143231 | 54 | 6 | 2.6 | 8.7 | 0.00 | 0.00 | 0.00 | 77 | 1013.0 |
| 20260506142445 | 54 | 334 | 3.5 | 8.7 | 0.00 | 0.00 | 0.00 | 77 | 1012.9 |
| 20260506141922 | 54 | 328 | 2.6 | 8.7 | 0.00 | 0.00 | 0.00 | 77 | 1013.0 |
| 20260506141355 | 54 | 319 | 2.6 | 7.0 | 0.00 | 0.00 | 0.00 | 77 | 1013.0 |
| 20260506140855 | 54 | 347 | 3.5 | 7.8 | 0.00 | 0.00 | 0.00 | 77 | 1012.8 |
| 20260506140350 | 54 | 315 | 3.5 | 7.8 | 0.00 | 0.00 | 0.00 | 76 | 1012.6 |
| 20260506135850 | 54 | 329 | 2.6 | 7.8 | 0.00 | 0.00 | 0.00 | 76 | 1012.4 |
| 20260506135812 | 54 | 309 | 2.6 | 7.8 | 0.00 | 0.00 | 0.00 | 77 | 1012.4 |
| 20260506134756 | 54 | 304 | 2.6 | 9.6 | 0.00 | 0.00 | 0.00 | 77 | 1012.5 |
| 20260506134230 | 54 | 332 | 3.5 | 9.6 | 0.00 | 0.00 | 0.00 | 77 | 1012.5 |
| 20260506133729 | 54 | 4 | 4.3 | 10.4 | 0.00 | 0.00 | 0.00 | 78 | 1012.3 |
| 20260506133201 | 54 | 37 | 4.3 | 10.4 | 0.00 | 0.00 | 0.00 | 78 | 1012.2 |
| 20260506132637 | 54 | 25 | 3.5 | 8.7 | 0.00 | 0.00 | 0.00 | 78 | 1012.2 |
| 20260506132401 | 54 | 315 | 2.6 | 8.7 | 0.00 | 0.00 | 0.00 | 79 | 1012.0 |
| 20260506131632 | 54 | 2 | 2.6 | 8.7 | 0.00 | 0.00 | 0.00 | 79 | 1012.0 |
| 20260506131109 | 54 | 342 | 2.6 | 8.7 | 0.00 | 0.00 | 0.00 | 79 | 1012.1 |
| 20260506130543 | 54 | 343 | 3.5 | 9.6 | 0.00 | 0.00 | 0.00 | 78 | 1012.0 |
| 20260506130026 | 54 | 330 | 3.5 | 9.6 | 0.00 | 0.00 | 0.00 | 78 | 1012.0 |
| 20260506125526 | 54 | 335 | 3.5 | 7.8 | 0.00 | 0.00 | 0.00 | 78 | 1012.0 |
| 20260506125248 | 54 | 247 | 3.5 | 7.8 | 0.00 | 0.00 | 0.00 | 77 | 1011.7 |
| 20260506124523 | 54 | 347 | 3.5 | 7.0 | 0.00 | 0.00 | 0.00 | 77 | 1011.5 |
| 20260506124024 | 55 | 20 | 2.6 | 7.8 | 0.00 | 0.00 | 0.00 | 76 | 1011.5 |
| 20260506123506 | 55 | 330 | 2.6 | 6.1 | 0.00 | 0.00 | 0.00 | 76 | 1011.5 |
| 20260506123433 | 55 | 340 | 2.6 | 8.7 | 0.00 | 0.00 | 0.00 | 76 | 1011.6 |
| 20260506122422 | 55 | 30 | 2.6 | 8.7 | 0.00 | 0.00 | 0.00 | 76 | 1011.1 |
| 20260506121920 | 55 | 16 | 3.5 | 9.6 | 0.00 | 0.00 | 0.00 | 76 | 1011.2 |
| 20260506121418 | 55 | 340 | 3.5 | 9.6 | 0.00 | 0.00 | 0.00 | 76 | 1011.4 |
| 20260506120852 | 55 | 11 | 4.3 | 12.2 | 0.00 | 0.00 | 0.00 | 75 | 1011.3 |
| 20260506120350 | 55 | 357 | 4.3 | 12.2 | 0.00 | 0.00 | 0.00 | 75 | 1011.3 |
| 20260506115849 | 55 | 307 | 4.3 | 9.6 | 0.00 | 0.00 | 0.00 | 74 | 1011.3 |
| 20260506115320 | 55 | 350 | 4.3 | 9.6 | 0.00 | 0.00 | 0.00 | 74 | 1011.0 |
| 20260506114822 | 55 | 321 | 4.3 | 12.2 | 0.00 | 0.00 | 0.00 | 74 | 1011.0 |
| 20260506114257 | 55 | 309 | 2.6 | 12.2 | 0.00 | 0.00 | 0.00 | 73 | 1010.8 |
| 20260506113751 | 56 | 28 | 2.6 | 7.8 | 0.00 | 0.00 | 0.00 | 72 | 1010.6 |
| 20260506113509 | 56 | 317 | 3.5 | 8.7 | 0.00 | 0.00 | 0.00 | 72 | 1010.5 |
| 20260506112721 | 56 | 345 | 3.5 | 9.6 | 0.00 | 0.00 | 0.00 | 72 | 1010.6 |
| 20260506112218 | 56 | 14 | 3.5 | 9.6 | 0.00 | 0.00 | 0.00 | 72 | 1010.7 |
| 20260506111706 | 56 | 316 | 4.3 | 10.4 | 0.00 | 0.00 | 0.00 | 72 | 1010.4 |
| 20260506111209 | 56 | 72 | 3.5 | 10.4 | 0.00 | 0.00 | 0.00 | 72 | 1010.4 |
| 20260506110650 | 56 | 30 | 3.5 | 8.7 | 0.00 | 0.00 | 0.00 | 71 | 1010.4 |
| 20260506110122 | 56 | 1 | 3.5 | 10.4 | 0.00 | 0.00 | 0.00 | 71 | 1010.2 |
| 20260506105559 | 57 | 16 | 3.5 | 10.4 | 0.00 | 0.00 | 0.00 | 70 | 1010.1 |
| 20260506105033 | 57 | 321 | 3.5 | 8.7 | 0.00 | 0.00 | 0.00 | 70 | 1009.9 |
| 20260506104528 | 57 | 27 | 3.5 | 8.7 | 0.00 | 0.00 | 0.00 | 70 | 1009.9 |
| 20260506104026 | 57 | 340 | 3.5 | 7.8 | 0.00 | 0.00 | 0.00 | 69 | 1009.8 |
| 20260506103502 | 57 | 27 | 2.6 | 7.8 | 0.00 | 0.00 | 0.00 | 69 | 1009.6 |
| 20260506103214 | 57 | 321 | 2.6 | 7.8 | 0.00 | 0.00 | 0.00 | 69 | 1009.5 |
| 20260506102724 | 57 | 352 | 2.6 | 7.8 | 0.00 | 0.00 | 0.00 | 69 | 1009.4 |
| 20260506101927 | 57 | 35 | 3.5 | 7.0 | 0.00 | 0.00 | 0.00 | 69 | 1009.3 |
| 20260506101401 | 58 | 9 | 2.6 | 7.0 | 0.00 | 0.00 | 0.00 | 69 | 1009.2 |
| 20260506100836 | 58 | 82 | 2.6 | 6.1 | 0.00 | 0.00 | 0.00 | 69 | 1009.1 |
| 20260506100307 | 58 | 333 | 2.6 | 7.0 | 0.00 | 0.00 | 0.00 | 69 | 1009.1 |
| 20260506095738 | 58 | 26 | 2.6 | 7.8 | 0.00 | 0.00 | 0.00 | 69 | 1009.1 |
| 20260506095458 | 58 | 96 | 1.7 | 7.8 | 0.00 | 0.00 | 0.00 | 70 | 1009.0 |
| 20260506094706 | 58 | 23 | 1.7 | 4.3 | 0.00 | 0.00 | 0.00 | 70 | 1009.0 |
| 20260506094204 | 58 | 1 | 2.6 | 6.1 | 0.00 | 0.00 | 0.00 | 69 | 1009.0 |
| 20260506093925 | 58 | 342 | 2.6 | 6.1 | 0.00 | 0.00 | 0.00 | 69 | 1009.0 |
| 20260506093203 | 58 | 324 | 1.7 | 6.1 | 0.00 | 0.00 | 0.00 | 69 | 1009.0 |
| 20260506092632 | 58 | 352 | 1.7 | 7.8 | 0.00 | 0.00 | 0.00 | 70 | 1009.1 |
| 20260506092130 | 58 | 350 | 2.6 | 7.8 | 0.00 | 0.00 | 0.00 | 69 | 1008.9 |
| 20260506092104 | 58 | 345 | 2.6 | 7.8 | 0.00 | 0.00 | 0.00 | 69 | 1008.8 |
| 20260506091557 | 58 | 347 | 1.7 | 7.8 | 0.00 | 0.00 | 0.00 | 69 | 1008.9 |
| 20260506090613 | 58 | 2 | 1.7 | 7.0 | 0.00 | 0.00 | 0.00 | 69 | 1008.8 |
| 20260506090114 | 58 | 9 | 2.6 | 7.0 | 0.00 | 0.00 | 0.00 | 69 | 1008.7 |
| 20260506085828 | 58 | 18 | 1.7 | 6.1 | 0.00 | 0.00 | 0.00 | 69 | 1008.6 |
| 20260506085058 | 58 | 338 | 2.6 | 8.7 | 0.00 | 0.00 | 0.00 | 69 | 1008.5 |
| 20260506084600 | 58 | 337 | 2.6 | 8.7 | 0.00 | 0.00 | 0.00 | 70 | 1008.5 |
| 20260506084029 | 58 | 328 | 2.6 | 7.0 | 0.00 | 0.00 | 0.00 | 69 | 1008.6 |
| 20260506083505 | 59 | 9 | 0.9 | 4.3 | 0.00 | 0.00 | 0.00 | 71 | 1008.5 |
| 20260506082940 | 59 | 14 | 1.7 | 6.1 | 0.00 | 0.00 | 0.00 | 70 | 1008.4 |
| 20260506082418 | 59 | 12 | 1.7 | 6.1 | 0.00 | 0.00 | 0.00 | 70 | 1008.1 |
| 20260506081918 | 59 | 338 | 1.7 | 6.1 | 0.00 | 0.00 | 0.00 | 70 | 1008.1 |
| 20260506081352 | 59 | 50 | 2.6 | 6.1 | 0.00 | 0.00 | 0.00 | 70 | 1008.2 |
| 20260506080846 | 59 | 356 | 2.6 | 6.1 | 0.00 | 0.00 | 0.00 | 71 | 1008.3 |
| 20260506080346 | 59 | 330 | 2.6 | 6.1 | 0.00 | 0.00 | 0.00 | 71 | 1008.3 |